Probability
3 3 3 3 3 3 0 0 0 3 0 0 0 0 0 0 0 0 0 0 0 0 0 0 0 0 0 0 0 0 0 0 0 0 0 0 0 0 0 0 0 0 0
3 3 3 0 3 3 3 0 0 0 0 0 0 0 0 0 0 0 0 0 0 0 0 0 0 0 0 0 0 0 0 0 0 0 0 0 0 0 0 0 0 0 0
3 3 3 3 0 0 3 3 0 0 0 0 0 0 0 0 0 0 0 0 0 0 0 0 0 0 0 0 0 0 0 0 0 0 0 0 0 0 0 0 0 0 0
3 3 3 0 0 0 0 0 0 0 0 0 0 0 0 0 0 0 0 0 0 0 0 0 0 0 0 0 0 0 0 0 0 0 0 0 0 0 0 0 0 0 0
0 0 0 0 0 0 0 0 0 0 0 0 0 0 0 0 0 0 0 0 0 0 0 0 0 0 0 0 0 0 0 0 0 0 0 0 0 0 0 0 0 0 0
0 0 0 0 0 0 0 0 0 0 0 0 0 0 0 0 0 0 0 0 0 0 0 0 0 0 0 0 0 0 0 0 0 0 0 0 0 0 0 0 0 0 0
0 0 0 0 0 0 0 0 3 3 0 0 0 0 0 0 0 0 0 0 0 0 0 0 0 0 0 0 0 0 0 0 0 0 0 0 0 0 0 0 0 0 0
0 0 0 0 0 0 0 0 3 3 0 0 0 0 0 0 0 0 0 0 0 0 0 0 0 0 0 0 0 0 0 0 0 0 0 0 0 0 0 0 0 0 0
0 0 0 0 0 0 0 0 0 0 0 0 0 0 0 0 0 0 0 0 0 0 0 0 0 0 0 0 0 0 0 0 0 0 0 0 0 0 0 0 0 0 0
0 0 0 0 0 0 0 0 0 0 0 0 0 0 0 0 0 0 0 0 0 0 0 0 0 0 0 0 0 0 0 0 0 0 0 0 0 0 0 0 0 0 0
0 0 0 0 0 0 0 0 0 0 0 0 0 0 0 0 0 0 0 0 0 0 0 0 0 0 0 0 0 0 0 0 0 0 0 0 0 0 0 0 0 0 0
0 0 0 0 0 0 0 0 0 0 0 0 0 0 0 0 0 0 0 0 0 0 0 0 0 0 0 0 0 0 0 0 0 0 0 0 0 0 0 0 0 0 0
0 0 0 0 0 0 0 0 0 0 0 0 0 0 0 0 0 0 0 0 0 0 0 0 0 0 0 0 0 0 0 0 0 0 0 0 0 0 0 0 0 0 0
0 0 0 0 0 0 0 0 0 0 0 0 0 0 0 0 0 0 0 0 0 0 0 0 0 0 0 0 0 0 0 0 0 0 0 0 0 0 0 0 0 0 0
0 0 0 0 0 0 0 0 0 0 0 0 0 0 0 0 0 0 0 0 0 0 0 0 0 0 0 0 0 0 0 0 0 0 0 0 0 0 0 0 0 0 0
0 0 0 0 0 0 0 0 0 0 0 0 0 0 0 0 0 0 0 0 0 0 0 0 0 0 0 0 0 0 0 0 0 0 0 0 0 0 0 0 0 0 0
0 0 0 0 0 0 0 0 0 0 0 0 0 0 0 0 0 0 0 0 0 0 0 0 0 0 0 0 0 0 0 0 0 0 0 0 0 0 0 0 0 0 0
0 0 0 0 0 0 0 0 0 0 0 0 0 0 0 0 0 0 0 0 0 0 0 0 0 0 0 0 0 0 0 0 0 0 0 0 0 0 0 0 0 0 0
0 0 0 0 0 0 0 0 0 0 0 0 0 0 0 0 0 0 0 0 0 0 0 0 0 0 0 0 0 0 0 0 0 0 0 0 0 0 0 0 0 0 0
0 0 0 0 0 0 0 0 0 0 0 0 0 0 0 0 0 0 0 0 0 0 0 0 0 0 0 0 0 0 0 0 0 0 0 0 0 0 0 0 0 0 0
0 0 0 0 0 0 0 0 0 0 0 0 0 0 0 0 0 0 0 0 0 0 0 0 0 0 0 0 0 0 0 0 0 0 0 0 0 0 0 0 0 0 0
0 0 0 0 0 0 0 0 0 0 0 0 0 0 0 0 0 0 0 0 0 0 0 0 0 0 0 0 0 0 0 0 0 0 0 0 0 0 0 0 0 0 0
0 0 0 0 0 0 0 0 0 0 0 0 0 0 0 0 0 0 0 0 0 0 0 0 0 0 0 0 0 0 0 0 0 0 0 0 0 0 0 0 0 0 0
0 0 0 0 0 0 0 0 0 0 0 0 0 0 0 0 0 0 0 0 0 0 0 0 0 0 0 0 0 0 0 0 0 0 0 0 0 0 0 0 0 0 0
0 0 0 0 0 0 0 0 0 0 0 0 0 0 0 0 0 0 0 0 0 0 0 0 0 0 0 0 0 0 0 0 0 0 0 0 0 0 0 0 0 0 0
0 0 0 0 0 0 0 0 0 0 0 0 0 0 0 0 0 0 0 0 0 0 0 0 0 0 0 0 0 0 0 0 0 0 0 0 0 0 0 0 0 0 0
Height
5745 5748 5751 5753 5756 5759 5761 5764 5767 5769 5771 5773 5775 5777 5779 5782 5783 5785 5787 5789 5790 5792 5793 5795 5796 5797 5798 5799 5800 5801 5801 5801 5802 5802 5802 5802 5802 5801 5801 5800 5799 5799 5798
5736 5739 5742 5745 5747 5749 5752 5755 5757 5759 5761 5763 5765 5767 5770 5772 5774 5776 5777 5779 5780 5782 5783 5785 5787 5788 5789 5790 5790 5791 5791 5792 5793 5793 5793 5793 5794 5793 5792 5791 5790 5790 5789
5727 5730 5732 5735 5737 5740 5742 5745 5747 5749 5751 5752 5754 5757 5759 5762 5764 5765 5767 5768 5770 5772 5773 5775 5776 5778 5779 5779 5780 5781 5782 5783 5783 5783 5784 5784 5785 5784 5784 5782 5782 5781 5780
5718 5720 5722 5725 5727 5730 5732 5734 5736 5738 5740 5742 5744 5746 5749 5751 5753 5755 5756 5757 5758 5760 5762 5764 5765 5767 5768 5769 5771 5771 5772 5773 5774 5774 5774 5775 5774 5774 5775 5774 5773 5772 5771
5709 5711 5713 5714 5717 5719 5721 5723 5725 5727 5729 5731 5733 5735 5737 5740 5742 5743 5744 5746 5747 5749 5750 5752 5754 5756 5758 5759 5760 5761 5762 5763 5763 5764 5764 5764 5764 5764 5764 5765 5764 5763 5762
5700 5701 5703 5704 5705 5707 5709 5712 5714 5716 5717 5719 5721 5723 5725 5728 5730 5731 5732 5734 5736 5737 5739 5741 5743 5745 5747 5748 5750 5751 5752 5752 5753 5753 5754 5754 5754 5754 5754 5754 5754 5753 5753
5691 5692 5693 5694 5695 5696 5698 5700 5702 5704 5705 5707 5709 5711 5713 5715 5717 5719 5721 5722 5724 5725 5727 5729 5731 5733 5735 5737 5738 5739 5741 5742 5742 5743 5743 5744 5744 5744 5744 5743 5743 5743 5743
5682 5682 5683 5683 5684 5685 5686 5688 5689 5691 5693 5695 5697 5699 5701 5703 5705 5707 5709 5710 5712 5714 5716 5718 5720 5722 5723 5725 5726 5728 5729 5731 5731 5732 5733 5733 5733 5733 5733 5733 5732 5732 5732
5673 5672 5672 5672 5673 5674 5674 5676 5677 5679 5681 5683 5684 5686 5688 5691 5693 5695 5697 5698 5701 5703 5704 5706 5708 5710 5711 5713 5715 5717 5718 5719 5720 5721 5722 5722 5722 5722 5722 5721 5721 5720 5720
5663 5662 5662 5661 5661 5661 5662 5663 5665 5666 5668 5670 5672 5675 5677 5679 5682 5684 5686 5687 5690 5691 5693 5694 5696 5698 5700 5701 5703 5705 5706 5708 5709 5710 5710 5711 5711 5711 5710 5710 5709 5708 5708
5653 5652 5651 5650 5649 5649 5650 5651 5652 5654 5656 5658 5661 5664 5666 5668 5670 5673 5675 5677 5678 5680 5682 5683 5685 5687 5688 5690 5691 5693 5694 5696 5697 5698 5698 5699 5699 5699 5699 5698 5697 5696 5695
5644 5642 5640 5639 5638 5638 5638 5639 5641 5642 5644 5647 5650 5652 5655 5657 5659 5661 5663 5665 5667 5669 5671 5672 5674 5675 5676 5678 5679 5681 5683 5684 5685 5686 5687 5687 5687 5687 5687 5686 5685 5684 5682
5635 5632 5630 5628 5628 5628 5628 5629 5629 5631 5633 5635 5638 5641 5643 5645 5647 5649 5651 5654 5655 5657 5658 5660 5662 5664 5665 5666 5668 5669 5671 5672 5673 5674 5675 5675 5675 5675 5675 5674 5673 5672 5670
5626 5624 5622 5620 5619 5618 5618 5619 5619 5620 5621 5624 5626 5628 5630 5632 5634 5637 5640 5642 5644 5645 5647 5649 5651 5652 5654 5655 5656 5657 5658 5659 5661 5662 5662 5663 5663 5663 5662 5661 5660 5659 5658
5618 5615 5614 5612 5610 5609 5609 5609 5610 5610 5611 5613 5615 5616 5618 5620 5622 5625 5628 5630 5632 5634 5636 5637 5639 5641 5642 5643 5644 5644 5645 5647 5648 5649 5650 5650 5650 5650 5649 5648 5647 5646 5645
5609 5607 5605 5602 5601 5600 5599 5599 5600 5600 5600 5601 5603 5605 5607 5609 5611 5614 5616 5618 5620 5622 5624 5626 5627 5629 5630 5631 5632 5632 5633 5634 5635 5636 5637 5638 5638 5637 5637 5636 5635 5633 5632
5600 5598 5596 5594 5592 5590 5589 5589 5590 5590 5590 5591 5593 5594 5596 5598 5600 5602 5604 5606 5609 5611 5612 5614 5616 5617 5618 5619 5620 5620 5621 5622 5623 5624 5624 5625 5625 5625 5624 5623 5622 5621 5619
5591 5589 5587 5585 5583 5582 5581 5580 5580 5580 5581 5581 5583 5584 5586 5588 5590 5592 5594 5596 5598 5600 5601 5603 5604 5605 5607 5608 5608 5609 5610 5611 5612 5612 5613 5613 5613 5613 5613 5612 5610 5609 5607
5583 5581 5579 5576 5575 5573 5572 5572 5572 5571 5572 5572 5573 5575 5576 5578 5580 5583 5584 5586 5588 5589 5591 5592 5593 5594 5595 5596 5597 5597 5598 5600 5601 5601 5601 5601 5601 5602 5601 5600 5599 5597 5596
5576 5573 5571 5569 5567 5566 5565 5564 5563 5563 5563 5564 5565 5566 5567 5569 5571 5573 5575 5576 5578 5579 5580 5581 5582 5583 5584 5585 5586 5586 5587 5589 5589 5590 5590 5590 5589 5589 5588 5587 5586 5586 5584
5568 5566 5564 5562 5560 5559 5558 5557 5556 5555 5555 5555 5556 5557 5559 5560 5562 5563 5565 5566 5568 5568 5570 5571 5571 5572 5573 5574 5575 5576 5577 5578 5578 5578 5578 5578 5578 5577 5576 5575 5575 5574 5572
5560 5558 5556 5554 5552 5551 5550 5548 5547 5547 5547 5547 5548 5549 5550 5551 5552 5554 5555 5556 5557 5559 5559 5560 5561 5562 5563 5564 5565 5566 5566 5566 5567 5567 5567 5567 5566 5566 5564 5564 5563 5562 5560
5552 5550 5548 5546 5545 5543 5542 5540 5539 5539 5539 5539 5539 5540 5541 5542 5543 5545 5546 5547 5548 5549 5549 5551 5552 5552 5553 5553 5555 5555 5555 5556 5556 5556 5556 5556 5555 5554 5553 5553 5551 5550 5548
5544 5542 5540 5538 5536 5535 5533 5532 5531 5531 5530 5530 5531 5531 5532 5533 5534 5535 5536 5537 5538 5539 5540 5541 5542 5543 5543 5544 5545 5545 5545 5546 5546 5545 5545 5544 5544 5543 5542 5541 5539 5538 5536
5536 5533 5531 5529 5528 5526 5525 5524 5523 5523 5522 5522 5522 5522 5523 5524 5525 5526 5527 5528 5529 5530 5531 5532 5532 5533 5533 5534 5534 5534 5535 5535 5535 5535 5534 5534 5533 5532 5531 5529 5528 5526 5524
5528 5525 5523 5521 5519 5518 5517 5516 5515 5514 5514 5513 5513 5514 5514 5515 5517 5517 5518 5518 5519 5520 5521 5522 5522 5523 5523 5524 5524 5524 5525 5525 5525 5524 5524 5523 5522 5520 5519 5518 5517 5515 5513
Wind_Speed
38 39 38 37 38 38 38 38 38 38 38 37 37 37 37 37 37 38 39 40 39 39 40 39 37 37 37 37 37 36 35 35 35 35 35 34 35 35 35 34 34 35 35
37 38 38 37 38 38 40 40 39 39 39 38 39 39 40 40 40 40 40 41 41 41 41 41 40 39 38 39 39 38 37 37 37 37 37 36 36 35 36 36 36 36 36
35 37 38 38 37 39 40 41 41 40 40 41 41 41 42 42 42 42 42 42 43 43 42 42 42 41 40 40 40 39 38 38 38 38 38 37 37 36 36 36 36 36 36
35 36 38 39 39 39 41 41 42 42 42 42 42 42 42 43 43 43 44 44 44 44 44 43 44 43 42 41 40 39 39 39 38 39 39 39 38 38 37 36 36 36 36
35 37 38 39 39 40 41 41 41 42 43 44 45 44 43 43 44 45 44 44 45 45 45 45 44 44 43 42 41 41 41 41 40 40 39 39 38 38 38 37 37 38 38
35 37 38 39 40 41 42 42 42 43 44 45 46 46 45 45 44 45 45 46 46 46 46 45 44 44 43 43 43 43 43 42 41 41 41 40 39 39 39 39 39 39 39
35 36 38 40 40 41 42 43 44 44 44 45 46 46 46 45 45 44 45 46 47 46 46 46 46 45 45 45 44 44 43 43 43 42 42 41 41 40 41 41 41 40 40
35 36 39 40 40 41 43 44 45 45 45 46 47 47 47 45 44 45 46 46 45 46 46 46 47 46 46 46 46 45 45 44 44 43 43 42 43 42 42 42 42 42 41
34 35 37 39 40 42 43 44 46 46 46 47 47 47 46 45 44 45 46 45 45 46 47 47 46 46 46 46 46 46 46 45 45 44 44 43 44 44 43 44 44 44 43
33 35 37 39 41 42 43 44 45 46 46 46 46 45 45 44 44 43 43 44 44 45 45 45 46 45 46 46 45 46 46 47 46 45 45 44 45 45 45 45 45 45 45
33 35 37 38 39 41 42 43 44 45 45 45 46 45 45 44 44 44 43 44 44 44 44 45 46 46 46 46 46 46 46 47 47 46 46 47 46 46 46 46 45 46 47
33 35 37 37 38 39 40 41 43 44 44 45 46 45 44 44 44 44 44 44 45 45 45 45 45 45 46 46 47 47 47 48 47 47 47 47 46 46 46 47 46 47 47
32 34 35 36 37 38 39 39 40 42 44 44 45 46 45 45 46 46 45 46 45 44 44 44 45 45 45 46 47 47 47 48 48 47 46 46 47 48 47 47 47 47 47
32 32 33 34 35 36 37 38 39 40 42 44 45 46 47 46 46 46 46 46 46 46 45 45 46 46 45 45 46 46 47 47 48 47 47 47 49 49 48 48 48 48 48
31 32 32 33 34 35 36 37 38 40 41 42 43 44 45 45 45 45 45 46 46 46 45 46 47 47 46 45 45 46 47 48 48 48 47 47 47 47 48 48 48 48 48
30 31 32 33 34 35 36 36 37 38 39 41 41 42 43 43 43 43 44 45 45 44 43 44 44 45 47 46 45 45 45 46 46 46 46 46 46 46 47 47 47 47 46
30 30 31 32 33 33 34 36 36 38 39 39 40 40 41 42 43 43 42 42 43 44 43 43 44 44 44 44 43 43 43 43 43 44 44 45 45 45 45 45 46 46 46
28 29 30 31 32 33 33 34 35 36 37 37 36 38 39 40 41 42 42 42 42 43 43 42 42 43 44 44 44 43 43 43 43 44 44 43 43 44 44 44 44 45 45
27 28 28 30 30 30 31 32 33 35 35 35 35 36 37 37 38 39 40 40 40 41 40 40 40 41 42 43 43 42 42 41 41 41 41 41 43 43 44 44 44 44 44
27 27 27 28 28 28 29 30 31 32 33 33 34 34 34 34 35 36 37 37 38 39 39 39 39 39 39 39 40 39 39 39 38 39 41 42 43 43 43 43 42 43 43
28 27 27 28 28 28 27 27 29 31 32 32 32 32 32 33 34 34 35 35 36 37 37 37 37 37 38 37 38 39 39 39 38 38 40 41 41 41 41 42 42 42 42
29 28 28 27 27 28 28 27 27 28 29 30 31 32 32 32 32 34 35 35 35 35 35 35 36 36 36 36 37 38 38 38 38 38 38 39 39 39 39 40 41 41 41
29 28 28 27 27 27 27 27 26 26 28 29 30 31 32 32 32 33 34 35 35 35 34 35 35 35 36 36 38 38 38 38 37 37 37 37 37 38 39 40 40 41 42
29 29 29 29 28 28 27 26 26 27 27 28 30 31 31 32 32 32 32 33 34 34 34 33 34 35 35 36 37 38 39 39 38 38 37 37 37 38 38 39 40 41 41
28 29 29 29 29 29 29 28 27 27 28 28 29 30 31 31 31 31 31 32 32 33 33 33 33 33 34 34 34 35 35 36 36 36 37 38 38 38 38 39 40 40 40
28 28 28 29 29 29 29 28 28 27 27 26 26 27 28 30 31 30 31 31 32 32 32 32 33 33 33 33 34 34 35 36 37 37 37 37 38 38 38 39 39 39 39
Wind_Direction
241 242 243 245 246 247 247 248 249 249 250 250 251 252 253 253 253 253 253 254 255 256 255 255 258 260 260 260 261 262 264 265 266 267 268 269 271 272 273 274 275 277 278
242 242 243 246 247 247 247 249 250 250 251 250 251 252 252 253 254 254 255 255 255 255 256 257 257 260 261 261 261 261 263 264 266 267 267 269 270 272 274 274 274 276 278
243 244 245 247 248 249 249 249 250 251 251 252 252 252 253 254 255 256 256 256 256 256 257 257 257 258 260 262 261 262 263 265 265 267 268 269 270 273 274 274 275 276 278
246 248 248 248 249 250 250 249 251 252 252 253 252 252 253 255 256 257 257 257 257 256 257 258 258 258 260 262 262 263 263 265 267 267 269 270 271 272 273 274 275 276 278
250 252 253 253 252 252 251 251 252 253 253 253 253 253 254 256 257 257 257 257 257 257 257 257 257 258 259 260 261 263 265 266 267 267 269 270 271 272 273 273 274 277 278
254 254 255 256 256 254 253 253 254 254 254 254 254 254 256 258 258 257 256 257 258 258 256 257 257 257 258 260 261 263 264 265 266 266 268 269 270 271 273 273 274 275 277
255 256 255 256 258 257 256 256 257 256 256 256 256 256 257 259 258 258 257 258 258 257 256 256 256 257 258 260 260 262 262 263 265 266 267 269 270 272 272 273 274 274 276
258 260 258 257 259 258 258 257 257 257 257 257 257 257 257 257 257 258 258 258 258 258 256 256 256 258 260 260 259 260 261 263 265 266 267 268 270 271 272 273 274 275 275
262 264 263 261 259 259 259 259 257 258 257 257 257 256 255 255 256 257 257 256 257 257 256 256 257 258 259 259 259 260 261 262 264 265 265 267 269 271 272 273 274 275 275
267 268 268 265 263 262 260 260 258 257 257 256 255 254 252 253 254 255 255 255 256 256 256 257 256 258 259 258 259 260 261 262 264 264 265 266 268 270 271 272 273 274 275
271 272 271 270 267 264 262 261 259 257 255 255 254 252 251 252 252 254 254 254 254 255 255 256 256 258 259 258 259 260 262 263 265 266 266 267 268 269 271 273 274 275 276
274 275 274 271 268 265 262 261 258 256 255 254 253 251 251 253 252 253 253 254 253 253 254 255 258 260 260 260 261 260 261 263 265 267 267 268 269 270 272 273 275 276 277
277 277 275 272 269 267 264 261 259 255 254 254 253 252 253 254 254 253 253 253 254 255 255 255 256 258 260 261 261 262 262 263 264 266 267 269 270 270 272 273 275 276 277
279 279 277 273 270 267 263 261 259 256 255 254 253 255 254 254 254 252 253 253 254 255 255 255 257 257 259 262 263 263 263 263 264 265 266 268 270 270 271 272 274 276 278
280 279 276 273 270 267 265 262 260 257 255 254 255 255 254 253 253 253 252 253 254 255 256 257 258 259 261 263 266 267 266 264 265 265 267 268 269 270 271 272 275 277 278
281 280 278 275 273 270 268 265 261 258 257 256 256 256 254 252 252 252 252 252 253 255 257 257 259 261 263 265 266 266 266 264 265 265 267 267 270 271 273 274 276 278 278
284 282 278 276 273 271 270 267 263 260 258 258 257 255 253 252 252 252 253 253 255 257 259 259 260 262 264 265 266 265 266 265 265 266 267 268 269 272 273 275 277 277 277
285 283 281 277 274 272 270 267 265 264 260 258 257 255 253 251 253 254 255 256 257 257 259 261 262 262 263 264 265 266 266 265 266 267 268 269 271 273 274 276 278 278 278
286 285 284 280 277 274 272 270 269 264 260 257 256 256 253 251 252 253 255 257 257 257 258 260 260 261 263 264 265 265 264 265 268 269 270 271 272 273 276 277 277 278 277
287 285 283 280 278 275 273 272 269 263 260 259 257 254 252 252 252 253 254 256 258 258 259 258 260 261 262 262 262 263 263 265 269 270 271 273 275 276 276 277 277 277 278
287 286 282 280 279 278 279 273 269 265 263 259 256 254 255 254 254 254 254 255 257 258 259 258 260 261 260 260 262 262 263 267 269 271 272 273 275 276 276 276 277 279 278
287 285 283 280 279 279 281 278 272 267 262 259 257 256 256 256 254 254 255 254 256 257 256 256 259 262 261 262 262 260 263 266 268 270 273 274 274 274 275 275 276 278 279
288 284 282 280 280 281 280 277 272 267 263 261 260 258 257 259 259 257 256 256 257 257 257 258 259 261 263 263 264 264 265 267 268 270 272 273 273 274 276 276 277 277 278
288 285 282 282 281 280 280 278 271 267 265 264 262 259 257 258 257 256 258 257 257 258 260 260 261 260 262 263 264 266 268 269 270 271 273 274 276 277 278 278 278 278 280
289 285 282 282 281 279 278 277 274 268 266 265 263 261 259 257 258 258 258 257 257 259 261 262 263 263 263 264 264 265 267 269 270 273 275 276 277 278 278 279 280 280 281
290 288 285 283 282 280 277 275 273 272 270 267 264 262 261 260 259 260 259 259 260 260 262 264 264 265 266 266 266 266 267 269 272 275 276 277 277 278 278 278 279 280 280